TimeCDT,TemperatureF,Dew PointF,Humidity,Sea Level PressureIn,VisibilityMPH,Wind Direction,Wind SpeedMPH,Gust SpeedMPH,PrecipitationIn,Events,Conditions,WindDirDegrees,DateUTC
12:56 AM,73.0,69.1,87,29.81,-9999.0,Calm,Calm,-,N/A,,Clear,0,2013-09-26 05:56:00
1:56 AM,71.1,68.0,90,29.82,-9999.0,Calm,Calm,-,N/A,,Clear,0,2013-09-26 06:56:00
2:35 AM,71.6,69.8,94,29.83,-9999.0,East,3.5,-,N/A,,Scattered Clouds,90,2013-09-26 07:35:00
2:43 AM,71.6,69.8,94,29.83,-9999.0,Calm,Calm,-,N/A,,Mostly Cloudy,0,2013-09-26 07:43:00
2:56 AM,71.1,69.1,93,29.82,-9999.0,East,3.5,-,N/A,,Overcast,90,2013-09-26 07:56:00
3:56 AM,71.1,69.1,93,29.82,-9999.0,ENE,4.6,-,0.01,,Overcast,70,2013-09-26 08:56:00
4:56 AM,71.1,69.1,93,29.84,-9999.0,NE,3.5,-,N/A,,Overcast,50,2013-09-26 09:56:00
5:56 AM,70.0,68.0,93,29.86,-9999.0,ENE,3.5,-,N/A,,Overcast,60,2013-09-26 10:56:00
6:56 AM,71.1,69.1,93,29.88,-9999.0,East,4.6,-,N/A,,Overcast,90,2013-09-26 11:56:00
7:56 AM,71.1,68.0,90,29.91,-9999.0,NNE,5.8,-,N/A,,Overcast,30,2013-09-26 12:56:00
8:22 AM,69.8,68.0,94,29.93,-9999.0,ENE,4.6,-,N/A,,Overcast,60,2013-09-26 13:22:00
8:56 AM,70.0,68.0,93,29.94,-9999.0,East,6.9,-,N/A,,Overcast,100,2013-09-26 13:56:00
9:56 AM,71.1,68.0,90,29.95,-9999.0,East,5.8,-,N/A,,Overcast,90,2013-09-26 14:56:00
10:13 AM,71.6,66.2,83,29.96,-9999.0,Variable,5.8,-,N/A,,Overcast,0,2013-09-26 15:13:00
10:56 AM,72.0,66.9,84,29.96,-9999.0,ENE,5.8,-,N/A,,Overcast,60,2013-09-26 15:56:00
11:56 AM,73.0,66.9,81,29.95,-9999.0,Variable,3.5,-,N/A,,Overcast,0,2013-09-26 16:56:00
12:42 PM,75.2,66.2,73,29.95,-9999.0,Variable,3.5,-,N/A,,Overcast,0,2013-09-26 17:42:00
12:56 PM,75.0,66.9,76,29.94,-9999.0,NNW,4.6,-,N/A,,Overcast,340,2013-09-26 17:56:00
1:31 PM,77.0,66.2,69,29.94,-9999.0,NW,3.5,-,N/A,,Overcast,310,2013-09-26 18:31:00
1:56 PM,79.0,66.9,66,29.92,-9999.0,Variable,4.6,-,N/A,,Mostly Cloudy,0,2013-09-26 18:56:00
2:06 PM,80.6,66.2,61,29.93,-9999.0,North,8.1,-,N/A,,Scattered Clouds,10,2013-09-26 19:06:00
2:51 PM,80.6,66.2,61,29.92,-9999.0,NE,4.6,-,N/A,,Mostly Cloudy,50,2013-09-26 19:51:00
2:56 PM,81.0,66.0,60,29.91,-9999.0,Variable,5.8,-,N/A,,Mostly Cloudy,0,2013-09-26 19:56:00
3:40 PM,78.8,66.2,65,29.92,-9999.0,ENE,5.8,-,N/A,,Scattered Clouds,60,2013-09-26 20:40:00
3:56 PM,81.0,64.9,58,29.91,-9999.0,North,5.8,-,N/A,,Partly Cloudy,10,2013-09-26 20:56:00
4:56 PM,82.0,66.0,58,29.91,-9999.0,North,5.8,-,N/A,,Partly Cloudy,350,2013-09-26 21:56:00
5:56 PM,80.1,66.9,64,29.91,-9999.0,NNE,3.5,-,N/A,,Clear,30,2013-09-26 22:56:00
6:56 PM,75.9,68.0,76,29.92,-9999.0,Calm,Calm,-,N/A,,Clear,0,2013-09-26 23:56:00
7:56 PM,73.9,66.9,79,29.94,-9999.0,ENE,4.6,-,N/A,,Clear,70,2013-09-27 00:56:00
8:56 PM,70.0,66.9,90,29.95,-9999.0,Calm,Calm,-,N/A,,Clear,0,2013-09-27 01:56:00
9:56 PM,70.0,66.0,87,29.97,-9999.0,SE,3.5,-,N/A,,Clear,130,2013-09-27 02:56:00
10:56 PM,69.1,66.0,90,29.98,-9999.0,ESE,3.5,-,N/A,,Clear,110,2013-09-27 03:56:00
11:56 PM,68.0,64.9,90,29.98,-9999.0,Calm,Calm,-,N/A,,Clear,0,2013-09-27 04:56:00